Location: Namasale
(1.5000°N, 32.6167°E)
Time: 08:00:20
(UTC+00:00)

Cosmos 2084 Rocket - Visible Passes

Search period start: 13 August 2020 00:00
Search period end: 23 August 2020 00:00
Orbit: 553 x 627 km, 62.8° (Epoch: 13 August)

Date Brightness Start Highest point End Pass type
(mag) Time Alt. Az. Time Alt. Az. Time Alt. Az.
13 Aug 4.1 17:27:20 10° SW 17:31:20 51° WNW 17:35:20 10° N visible
14 Aug 5.8 17:36:06 10° WSW 17:39:22 23° WNW 17:42:38 10° NNW visible
15 Aug 6.9 17:46:45 10° WNW 17:47:26 10° WNW 17:48:06 10° NW visible
16 Aug 3.3 16:12:07 10° SSW 16:16:12 69° ESE 16:20:18 10° NNE visible
17 Aug 4.5 16:20:14 10° SW 16:24:13 49° WNW 16:28:12 10° N visible
18 Aug 6.9 02:46:02 10° NE 02:48:12 13° ENE 02:50:22 10° E visible
18 Aug 6.3 16:29:03 10° WSW 16:32:15 22° WNW 16:35:27 10° NNW visible
19 Aug 5.9 02:52:25 10° N 02:56:15 27° ENE 03:00:07 10° SE visible
20 Aug 4.3 02:59:50 10° NNW 03:04:18 58° ENE 03:08:46 10° SE visible
21 Aug 3.6 03:07:50 10° NNW 03:12:19 63° WSW 03:16:49 10° SSE visible
22 Aug 6.6 01:38:46 10° NE 01:41:05 14° ENE 01:43:23 10° E visible
22 Aug 4.4 03:16:25 10° NW 03:20:21 29° WSW 03:24:18 10° S visible
